GW2402 Weather Reports


Display with metric or nautical units.
time (UTC)temp
F
wind
direction
speed
MPH
gust
MPH
rain 1hr
in
rain 24hr
in
rain mn
in
humidity
%
barometer
mb
20260904174556 84 0 0.0 0.0 0.00 0.00 0.00 81 1014.7
20260904173111 84 0 0.0 1.0 0.00 0.00 0.00 81 1014.8
20260904171609 84 0 0.0 0.0 0.00 0.00 0.00 82 1015.0
20260904170058 83 0 0.0 0.0 0.00 0.00 0.00 83 1015.1
20260904164557 83 0 0.0 0.0 0.00 0.00 0.00 84 1015.2
20260904163053 83 0 0.0 1.0 0.00 0.00 0.00 84 1015.0
20260904161602 83 0 0.0 1.0 0.00 0.00 0.00 85 1014.8
20260904160055 83 0 0.0 1.0 0.00 0.00 0.00 86 1014.7
20260904154556 82 47 0.0 0.0 0.00 0.00 0.00 88 1014.6
20260904153049 81 0 0.0 1.0 0.00 0.00 0.00 88 1014.6
20260904151547 81 0 0.0 1.0 0.00 0.00 0.00 89 1014.3
20260904150121 81 0 0.0 1.0 0.00 0.00 0.00 90 1014.3
20260904144551 81 283 0.0 3.0 0.00 0.00 0.00 89 1014.5
20260904143048 80 25 0.0 2.0 0.00 0.00 0.00 89 1014.3
20260904141617 81 0 0.0 2.0 0.00 0.00 0.00 89 1014.3
20260904140055 81 0 0.0 1.0 0.00 0.00 0.00 89 1014.4
20260904134557 81 0 0.0 0.0 0.00 0.00 0.00 88 1014.3
20260904133049 81 0 0.0 0.0 0.00 0.00 0.00 88 1014.4
20260904131557 80 0 0.0 0.0 0.00 0.00 0.00 88 1014.2
20260904130054 80 0 0.0 0.0 0.00 0.00 0.00 88 1014.0
20260904124554 80 0 0.0 0.0 0.00 0.00 0.00 88 1013.9
20260904123053 80 0 0.0 0.0 0.00 0.00 0.00 88 1013.7
20260904121548 80 0 0.0 0.0 0.00 0.00 0.00 88 1013.5
20260904120107 80 0 0.0 0.0 0.00 0.00 0.00 88 1013.3
20260904114548 80 0 0.0 0.0 0.00 0.00 0.00 88 1013.2
20260904113100 80 0 0.0 0.0 0.00 0.00 0.00 87 1013.3
20260904111548 80 0 0.0 0.0 0.00 0.00 0.00 87 1013.3
20260904110045 80 0 0.0 0.0 0.00 0.00 0.00 87 1013.2
20260904104548 80 0 0.0 0.0 0.00 0.00 0.00 86 1013.0
20260904103054 81 0 0.0 0.0 0.00 0.00 0.00 86 1012.9
20260904101549 81 0 0.0 0.0 0.00 0.00 0.00 86 1012.8
20260904100056 81 0 0.0 0.0 0.00 0.00 0.00 86 1012.8
20260904094548 81 0 0.0 0.0 0.00 0.00 0.00 86 1012.6
20260904093103 81 0 0.0 0.0 0.00 0.00 0.00 86 1012.5
20260904091548 81 0 0.0 0.0 0.00 0.00 0.00 86 1012.7
20260904090048 81 0 0.0 0.0 0.00 0.00 0.00 85 1012.5
20260904084555 81 0 0.0 1.0 0.00 0.00 0.00 85 1012.5
20260904083050 81 0 0.0 1.0 0.00 0.00 0.00 85 1012.6
20260904081547 81 0 0.0 1.0 0.00 0.00 0.00 85 1012.6
20260904080045 81 0 0.0 1.0 0.00 0.00 0.00 84 1012.4
20260904074551 82 0 0.0 1.0 0.00 0.00 0.00 84 1012.7
20260904073050 82 0 0.0 1.0 0.00 0.00 0.00 83 1012.6
20260904071547 82 0 0.0 1.0 0.00 0.00 0.00 83 1012.9
20260904070101 82 0 0.0 2.0 0.00 0.00 0.00 82 1013.1
20260904064553 82 0 0.0 1.0 0.00 0.00 0.00 82 1013.1
20260904063048 82 0 0.0 1.0 0.00 0.00 0.00 81 1013.1
20260904061546 82 0 0.0 0.0 0.00 0.00 0.00 81 1012.9
20260904060049 82 0 0.0 1.0 0.00 0.00 0.00 81 1013.1
20260904054554 82 0 0.0 2.0 0.00 0.00 0.00 80 1013.0
20260904053049 82 0 0.0 2.0 0.00 0.00 0.00 80 1012.8
20260904051606 82 274 0.0 1.0 0.00 0.00 0.00 80 1012.9
20260904050058 82 278 0.0 1.0 0.00 0.00 0.00 80 1012.8
20260904044553 82 0 0.0 1.0 0.00 0.00 0.00 80 1012.9
20260904043052 82 0 0.0 1.0 0.00 0.00 0.00 80 1012.6
20260904041559 82 0 0.0 1.0 0.00 0.00 0.00 80 1012.7
20260904040105 82 0 0.0 1.0 0.00 0.00 0.00 80 1012.8
20260904034554 82 0 0.0 1.0 0.00 0.00 0.00 79 1012.8
20260904033048 82 0 0.0 1.0 0.00 0.00 0.00 79 1012.7
20260904031546 82 0 0.0 1.0 0.00 0.00 0.00 78 1012.4
20260904030058 83 0 0.0 1.0 0.00 0.00 0.00 77 1012.4
20260904024549 83 0 0.0 1.0 0.00 0.00 0.00 76 1012.2
20260904023057 83 239 0.0 1.0 0.00 0.00 0.00 75 1012.3
20260904021606 84 0 0.0 1.0 0.00 0.00 0.00 74 1012.1
20260904020101 84 0 0.0 2.0 0.00 0.00 0.00 73 1012.0
20260904014600 85 266 0.0 2.0 0.00 0.00 0.00 71 1011.5
20260904013049 85 0 0.0 0.0 0.00 0.00 0.00 70 1011.1
20260904011559 86 0 0.0 0.0 0.00 0.00 0.00 69 1011.1
20260904010056 87 0 0.0 1.0 0.00 0.00 0.00 68 1011.2
20260904004553 87 0 0.0 1.0 0.00 0.00 0.00 67 1011.1
20260904003047 88 240 0.0 2.0 0.00 0.00 0.00 66 1011.0
20260904001559 89 0 0.0 1.0 0.00 0.00 0.00 65 1010.9
20260904000112 90 107 0.0 2.0 0.00 0.00 0.00 63 1010.8
20260903234553 91 231 0.0 4.0 0.00 0.00 0.00 62 1010.7
20260903233054 91 0 0.0 3.0 0.00 0.00 0.00 62 1010.6
20260903231556 91 232 0.0 3.0 0.00 0.00 0.00 63 1010.7
20260903230057 92 268 0.0 4.0 0.00 0.00 0.00 63 1010.5
20260903224629 93 0 1.0 3.0 0.00 0.00 0.00 62 1010.2
20260903223049 95 237 1.0 4.0 0.00 0.00 0.00 56 1010.1
20260903221555 96 133 0.0 4.0 0.00 0.00 0.00 52 1010.0
20260903220053 96 135 0.0 3.0 0.00 0.00 0.00 52 1010.2
20260903214608 97 117 0.0 2.0 0.00 0.00 0.00 52 1010.0
20260903213059 98 240 0.0 1.0 0.00 0.00 0.00 50 1010.0
20260903211603 100 226 0.0 2.0 0.00 0.00 0.00 49 1010.3
20260903210123 99 0 0.0 2.0 0.00 0.00 0.00 49 1010.2
20260903204552 99 0 0.0 2.0 0.00 0.00 0.00 50 1010.2
20260903203107 98 0 0.0 1.0 0.00 0.00 0.00 51 1010.6
20260903201555 98 0 0.0 2.0 0.00 0.00 0.00 52 1010.9
20260903200054 98 5 0.0 2.0 0.00 0.00 0.00 51 1011.0
20260903194546 98 0 0.0 1.0 0.00 0.00 0.00 52 1011.1
20260903193056 98 46 1.0 4.0 0.00 0.00 0.00 51 1011.4
20260903191549 97 226 0.0 1.0 0.00 0.00 0.00 53 1011.3
20260903190047 98 0 0.0 2.0 0.00 0.00 0.00 52 1011.8
20260903184546 96 27 1.0 3.0 0.00 0.00 0.00 53 1012.0
20260903183055 96 25 2.0 3.0 0.00 0.00 0.00 54 1012.2
20260903181552 96 0 0.0 4.0 0.00 0.00 0.00 55 1012.6
20260903180048 96 0 0.0 4.0 0.00 0.00 0.00 55 1012.7